GFSGL_700_spd_000.txt.gz
Wind_Speed
23 26 31 31 30 30 26 23 20 22 21 21 20 17 19 17 17 17 17 17 17 17 17 19 19 21 22 24 26 29 31 33 34 28 31 28 26 27 29 30 30 32 34
27 29 29 36 36 35 32 27 25 25 23 24 19 18 18 17 17 16 17 16 15 15 17 19 19 23 24 25 28 31 32 31 33 33 30 34 32 28 30 31 33 33 35
29 33 33 35 39 37 36 32 32 26 25 23 21 17 16 17 17 16 18 15 15 16 19 20 21 24 22 25 27 30 32 32 32 34 34 33 33 28 32 33 35 38 38
29 33 38 38 37 44 42 31 27 24 25 23 20 15 14 15 15 16 17 16 16 17 18 20 23 26 25 25 27 31 33 34 33 36 36 35 35 32 36 38 40 41 44
24 27 31 36 45 44 47 28 25 25 27 24 20 15 13 15 16 18 17 18 19 18 19 23 24 27 28 27 26 25 28 30 31 33 36 35 33 35 36 38 41 45 45
23 23 24 34 45 48 43 26 24 29 28 24 19 16 15 17 21 22 21 23 22 23 24 23 25 31 30 29 30 32 31 32 32 33 34 33 33 36 37 41 46 49 56
27 26 29 29 33 45 38 26 27 34 28 25 21 17 16 21 23 26 26 26 26 29 30 28 32 32 31 30 32 37 36 34 35 36 37 34 36 34 40 44 43 49 54
30 31 31 34 32 39 37 32 28 27 27 23 22 20 20 23 27 27 26 26 28 30 30 34 34 32 28 32 37 37 27 29 34 34 36 35 34 36 40 40 44 47 59
21 24 28 30 30 35 33 16 22 28 25 22 22 25 25 28 29 28 31 27 32 30 32 33 33 33 30 33 34 29 26 29 33 32 33 32 36 39 36 42 44 53 64
19 24 24 28 28 27 22 20 26 29 28 28 30 32 31 31 25 33 30 28 31 31 32 33 33 35 35 37 33 31 29 30 33 29 28 32 36 34 32 38 44 53 62
29 24 26 30 26 25 23 26 28 32 28 30 32 31 37 42 22 26 29 32 31 32 31 30 32 32 32 33 33 29 29 30 33 31 30 33 32 30 30 34 41 51 53
27 26 26 28 26 26 24 28 27 26 29 37 29 40 47 39 19 23 30 30 31 29 29 29 29 31 31 31 29 27 29 31 31 30 30 31 29 28 31 35 43 40 38
30 28 27 22 21 23 26 27 32 31 32 34 27 29 22 25 22 26 27 28 29 28 26 27 28 31 30 25 24 24 27 30 29 27 27 26 26 27 31 36 40 40 36
29 24 25 18 24 26 28 32 33 29 34 32 20 26 25 19 22 26 28 28 28 26 26 27 29 29 25 23 21 25 25 27 26 24 23 24 26 27 31 32 36 43 37
23 23 21 20 28 25 28 33 33 26 27 18 19 25 23 21 24 27 29 29 28 25 25 28 28 27 21 20 23 25 27 28 26 23 23 25 25 26 24 27 30 41 38
17 9 11 12 18 16 22 26 22 23 17 19 19 22 22 24 28 30 31 30 26 26 25 25 27 15 13 18 23 25 26 25 24 23 23 24 22 24 24 21 24 31 40
9 3 2 6 9 12 17 16 16 17 19 20 23 24 25 27 31 32 31 26 25 24 22 20 13 11 15 20 24 25 24 22 22 22 22 22 21 22 20 16 19 23 29
6 3 2 5 10 14 17 18 20 22 22 23 25 27 27 29 30 29 27 25 25 23 23 19 19 21 23 26 26 24 23 22 21 20 19 21 20 18 16 13 14 20 24
6 11 10 14 16 18 20 19 20 21 21 26 27 27 28 28 29 25 20 21 23 24 23 22 22 23 25 26 24 22 20 19 18 18 17 17 17 15 14 12 11 14 20
12 12 17 16 14 18 21 22 24 24 25 26 27 24 24 29 23 22 22 23 22 22 22 22 22 23 23 22 21 19 18 17 16 16 14 13 14 13 11 10 10 8 13
13 17 13 9 11 17 25 31 29 26 24 26 23 24 28 24 23 23 24 25 26 23 21 21 22 21 20 18 17 16 14 14 13 12 12 9 9 10 11 10 10 10 9
17 16 15 16 19 23 24 23 23 22 21 25 24 26 25 22 20 24 28 24 24 22 21 21 20 19 17 15 14 12 11 11 11 10 9 8 8 9 10 11 11 10 9
20 20 21 22 26 25 24 24 23 23 23 24 24 22 19 22 25 25 24 20 20 21 21 20 19 17 15 13 11 10 9 9 9 8 8 9 8 8 9 9 10 11 11
20 21 23 24 25 26 23 22 21 20 23 23 19 19 21 26 24 24 21 23 23 21 20 18 17 16 13 10 9 8 8 8 8 8 8 9 9 8 7 8 8 8 9
20 22 22 23 25 25 25 23 20 18 18 18 17 20 20 20 20 20 22 23 22 19 18 17 16 13 11 9 8 8 8 9 10 9 9 10 10 9 8 7 7 7 6
21 21 22 21 21 20 20 18 17 17 18 18 19 19 18 19 20 21 21 20 19 17 17 15 14 13 11 10 9 9 9 11 11 11 11 11 11 10 9 7 5 5 5

GFSGL_700_spd_003.txt.gz
Wind_Speed
21 23 27 30 31 29 26 26 27 20 27 20 22 21 20 19 19 16 15 15 14 14 16 17 18 18 20 22 23 24 25 28 30 24 30 30 24 25 27 30 31 31 32
22 24 25 28 37 29 36 26 32 29 20 24 25 24 23 23 19 15 14 14 14 13 15 18 19 20 20 22 24 24 27 28 32 35 26 28 31 28 29 29 29 31 30
24 24 27 30 34 40 38 42 39 30 24 23 26 27 26 25 21 16 15 14 13 13 16 18 18 20 21 25 25 26 29 29 33 35 33 29 31 30 31 29 30 32 33
21 22 26 29 32 40 43 44 48 43 38 29 29 27 29 28 22 17 16 17 14 17 19 19 20 24 24 25 28 30 31 31 32 34 35 32 31 30 32 32 33 34 35
19 19 20 30 38 41 45 50 57 53 40 36 38 29 30 27 22 19 19 20 22 23 23 23 22 28 28 30 33 32 31 33 35 36 38 37 33 35 36 37 37 37 39
20 19 22 26 28 32 41 49 46 47 26 27 37 31 27 25 23 23 22 24 27 30 28 28 28 30 30 35 33 32 30 33 37 38 36 34 32 35 37 37 39 39 45
28 29 30 31 29 27 30 31 37 33 33 20 34 28 30 25 24 28 27 28 31 35 35 30 31 32 34 36 34 33 30 34 39 36 34 32 35 33 36 38 37 43 45
29 29 30 32 32 31 32 31 29 25 32 20 30 27 26 28 28 32 32 31 31 35 35 30 34 33 35 37 35 33 32 36 37 37 36 36 34 32 36 40 42 46 46
11 12 16 21 24 24 28 28 23 20 21 21 30 32 33 32 35 39 30 36 36 32 34 30 37 36 36 35 35 37 37 36 36 37 35 35 34 33 37 43 43 45 47
9 17 24 24 22 25 28 29 24 22 22 29 35 32 30 33 37 35 39 40 39 35 31 34 38 38 35 35 36 36 37 34 32 31 33 34 34 35 37 40 40 43 46
25 26 26 26 27 27 27 27 21 22 23 29 31 31 36 36 38 39 41 41 41 33 28 33 36 36 36 35 34 36 35 30 29 31 32 31 32 33 33 34 35 40 45
34 39 30 26 23 23 24 19 16 17 23 27 29 33 37 35 27 35 43 45 32 29 28 32 34 35 34 34 34 33 28 25 27 30 31 29 29 30 30 31 33 36 39
35 33 33 27 22 18 10 13 16 20 23 29 33 31 30 30 33 32 28 29 26 27 31 33 33 33 33 33 31 28 24 27 29 30 29 29 29 30 31 33 31 34 33
28 25 20 20 19 18 14 8 9 15 25 32 24 19 28 35 31 25 27 26 27 29 31 32 30 30 31 30 29 24 25 28 30 32 31 29 28 29 31 31 31 33 33
19 16 16 16 13 17 12 8 9 11 14 22 22 22 25 25 23 24 24 24 27 30 31 29 27 27 27 26 21 20 24 27 29 29 28 27 26 27 27 26 27 26 30
9 7 6 8 10 11 9 11 11 13 19 23 26 28 25 20 21 23 24 25 29 29 26 25 24 21 22 15 16 19 23 28 30 28 26 26 25 25 25 22 21 21 25
11 11 11 12 14 13 13 14 15 15 14 15 19 20 20 22 22 24 27 29 29 28 25 23 20 19 19 20 23 26 29 30 30 28 25 23 23 24 23 21 17 17 19
12 12 15 17 16 13 13 15 17 17 20 22 21 22 21 23 24 27 30 29 27 23 21 21 22 23 24 24 26 27 29 28 28 25 23 22 22 21 20 17 17 16 18
14 15 19 18 14 14 16 18 18 18 19 19 21 24 25 23 25 24 27 24 21 21 22 22 22 22 22 23 24 25 25 25 24 22 20 19 18 17 17 16 15 14 16
17 18 17 16 16 17 17 16 18 19 21 27 27 26 23 24 24 26 28 23 21 22 24 23 22 22 21 22 23 22 22 21 20 17 15 14 14 14 14 14 14 13 14
21 19 18 18 16 14 16 17 21 25 29 27 27 25 27 24 25 26 24 23 26 25 28 23 21 21 21 21 20 19 18 16 15 13 12 12 11 12 12 13 13 12 13
17 18 19 19 17 18 19 20 23 24 25 27 25 23 24 25 26 26 24 24 28 25 21 20 21 21 21 20 18 16 14 13 12 11 10 10 10 10 11 12 13 13 13
16 18 20 19 19 21 21 23 23 23 22 22 23 24 25 26 28 25 25 28 28 24 22 22 22 21 20 18 16 13 11 10 10 10 10 10 9 9 10 10 11 11 12
18 19 20 20 20 22 23 24 22 21 21 22 23 25 26 24 23 24 28 26 23 23 23 21 19 19 18 15 12 10 9 9 9 9 9 10 9 8 8 9 9 10 10
18 20 21 23 23 23 23 24 23 23 22 23 23 22 24 22 23 25 25 23 23 23 20 17 17 16 14 12 10 9 9 9 9 10 10 11 12 10 9 8 8 8 7
20 22 23 23 22 23 21 20 19 20 21 21 21 20 20 20 20 21 22 22 22 20 17 16 16 14 12 11 10 10 10 11 11 11 11 11 12 11 8 6 6 6 5

GFSGL_700_spd_006.txt.gz
Wind_Speed
28 25 28 28 29 30 30 24 25 23 24 18 18 25 28 25 21 21 21 18 17 16 15 15 16 16 17 17 17 20 22 23 22 18 23 26 31 35 31 30 30 30 29
21 21 23 26 31 33 35 31 33 30 32 24 23 25 22 25 27 23 23 21 18 16 15 14 17 19 18 17 20 22 23 26 27 32 23 26 31 35 35 32 29 31 33
24 25 24 25 26 31 38 41 39 38 40 46 36 37 42 32 31 25 24 24 21 17 15 16 17 20 19 19 23 24 26 30 28 29 31 30 30 33 32 31 32 30 31
28 26 26 26 30 31 34 38 44 51 54 56 48 50 39 35 29 25 26 25 23 20 18 19 20 21 21 25 27 27 32 34 30 29 28 26 34 29 27 29 26 27 30
28 26 25 29 29 31 34 35 42 51 54 56 53 39 40 38 36 29 27 27 24 24 23 22 24 26 29 28 32 31 32 33 32 32 29 29 36 30 28 33 34 29 32
29 29 28 27 25 27 28 33 39 41 41 40 31 34 37 37 37 32 29 29 28 27 27 26 28 29 31 29 32 33 33 36 35 33 33 36 37 33 32 35 39 39 38
31 30 27 27 27 29 30 30 30 30 33 33 31 34 32 30 34 30 30 31 32 32 31 32 32 31 32 31 31 33 35 36 35 35 38 38 34 37 38 38 39 39 40
33 31 29 29 24 24 24 23 24 28 30 27 26 29 29 29 34 33 36 34 34 33 32 34 39 38 37 31 32 37 37 35 37 36 39 42 41 37 36 38 39 40 40
34 33 28 19 13 13 17 21 20 26 30 27 28 26 26 31 34 31 33 33 34 31 35 42 40 44 45 30 33 37 36 36 36 38 38 39 37 34 37 40 38 41 42
35 32 24 16 15 18 23 25 25 26 27 23 23 26 27 29 33 28 29 31 32 35 40 42 42 35 35 30 34 36 37 35 36 36 37 33 31 33 33 36 36 38 39
30 27 23 22 26 31 33 38 24 23 21 19 21 25 28 30 31 28 35 34 35 41 43 44 42 30 35 35 35 36 35 35 36 33 27 28 31 33 34 34 34 36 38
23 21 25 29 30 31 29 30 25 17 15 17 19 23 24 27 31 32 31 34 38 38 37 36 35 33 34 33 35 34 34 34 33 29 28 31 33 34 34 34 33 35 36
25 31 32 30 24 23 24 23 22 16 16 19 21 24 25 27 32 30 34 36 35 34 32 30 32 34 32 35 32 33 34 33 29 27 29 31 32 33 32 32 33 32 32
31 29 25 23 20 20 21 20 17 15 18 18 19 26 26 27 31 28 30 32 30 30 30 31 32 33 33 32 33 32 32 27 23 24 26 30 31 31 30 30 31 30 29
28 27 24 24 20 19 20 20 19 19 16 16 16 20 25 21 22 21 24 25 26 27 29 30 32 30 29 30 29 30 24 19 21 26 30 32 32 31 30 28 29 26 25
25 22 23 22 18 18 17 16 17 19 19 17 15 18 19 19 16 15 18 22 23 25 27 30 30 29 27 26 25 24 24 25 28 30 31 30 31 29 28 26 25 23 23
21 20 18 16 15 16 17 18 20 20 18 18 16 13 13 16 19 20 21 23 25 26 27 28 25 25 24 24 25 25 25 28 29 29 28 28 28 26 25 24 22 20 19
17 17 17 16 18 20 20 19 18 18 19 18 16 16 17 20 20 23 24 24 25 24 22 20 20 22 23 23 24 24 24 26 27 26 25 25 23 22 21 20 20 19 19
17 18 16 17 20 21 21 19 18 19 18 17 15 17 20 22 23 23 23 24 24 25 22 20 21 22 22 21 21 21 22 23 23 22 21 19 18 18 17 17 18 18 19
20 20 19 19 22 21 20 19 19 18 16 17 19 24 24 23 25 24 24 23 23 22 20 21 23 22 19 20 20 20 21 21 20 18 16 15 14 14 15 15 15 16 17
21 21 21 22 22 23 18 18 17 15 18 22 24 27 24 24 22 23 25 25 24 24 21 22 21 19 19 19 19 19 19 18 16 14 13 12 12 13 14 14 14 14 16
23 22 25 24 23 22 20 18 20 20 22 24 22 26 23 23 23 24 26 26 27 24 23 22 21 20 20 20 19 18 16 15 13 12 11 11 11 12 13 14 13 14 14
24 22 23 23 23 24 21 22 23 25 23 24 22 26 25 24 24 26 27 28 25 23 23 22 21 22 20 19 17 16 14 12 11 10 10 10 10 11 12 13 14 14 13
25 20 23 22 21 22 23 23 23 25 23 22 23 23 25 26 24 23 24 24 24 24 24 21 21 20 17 16 14 13 11 10 10 9 9 11 11 10 12 13 14 14 13
22 22 20 21 22 22 24 23 24 20 20 21 19 25 24 25 23 22 23 24 23 22 21 20 19 17 15 13 13 12 10 9 9 9 9 11 12 11 11 13 13 13 12
18 19 21 22 24 25 25 25 24 23 23 22 22 21 23 22 21 21 22 22 21 21 20 18 17 16 15 14 13 12 12 10 9 10 10 10 11 10 9 10 11 10 10

GFSGL_700_spd_009.txt.gz
Wind_Speed
28 28 27 24 22 23 25 26 25 27 25 29 26 29 29 29 27 40 29 23 27 21 16 16 13 12 14 15 13 12 17 15 17 17 21 24 28 29 32 33 32 33 30
28 28 27 28 29 27 28 30 31 33 35 32 32 36 36 37 43 41 29 27 28 26 19 18 17 16 15 14 13 19 22 24 26 28 28 24 25 25 30 31 32 30 29
28 25 25 26 26 28 28 32 33 37 40 40 43 40 46 46 48 49 45 32 31 26 21 18 18 17 15 13 14 18 22 25 26 28 27 25 22 24 27 33 30 30 29
28 29 26 25 26 28 30 30 33 35 39 41 44 46 49 49 51 53 51 33 31 27 23 22 20 22 24 22 20 22 25 26 28 27 30 33 30 24 25 36 33 27 32
31 30 28 27 29 31 31 29 31 34 35 38 42 41 43 48 50 50 47 36 35 27 25 25 23 24 26 27 28 30 25 26 29 31 33 33 32 27 31 36 34 34 33
35 31 29 30 31 30 30 30 31 32 35 36 39 38 39 36 39 36 43 35 34 31 29 29 27 26 29 32 32 34 35 30 28 32 33 33 33 34 32 34 37 40 40
33 30 31 31 30 31 31 31 30 30 28 26 27 30 35 38 36 35 34 31 36 35 31 29 28 25 27 30 37 43 45 32 29 33 34 34 35 35 37 38 38 38 37
32 32 32 34 33 29 28 27 25 18 16 19 25 32 34 31 37 35 30 32 34 34 31 32 30 26 30 35 40 37 41 40 34 34 36 36 35 38 38 35 33 33 34
36 35 34 33 29 26 21 16 13 15 20 27 30 38 30 29 32 29 28 31 33 34 33 32 29 32 33 38 44 36 33 33 31 35 36 33 35 34 29 31 32 33 33
35 35 31 28 25 24 19 14 18 21 24 30 30 31 27 28 28 26 25 30 31 33 30 28 29 33 37 36 35 32 36 34 34 33 34 36 34 27 27 31 33 33 36
35 35 32 28 24 21 22 23 24 24 27 26 27 25 23 26 27 26 26 27 25 25 28 30 37 33 31 28 30 32 34 34 34 33 33 33 29 27 29 26 35 37 38
35 31 30 25 23 25 26 28 28 28 26 24 22 19 22 22 25 26 26 26 27 25 30 33 36 33 28 31 33 33 34 33 32 33 33 27 26 26 28 31 32 34 34
32 29 28 24 25 26 27 29 28 25 23 21 21 22 23 23 26 23 26 22 22 26 32 35 28 28 32 34 34 35 34 30 31 30 27 23 24 27 30 32 32 32 31
26 25 23 24 26 28 27 25 22 22 22 21 23 25 23 24 24 24 24 24 26 26 28 26 26 31 34 36 38 35 29 27 26 22 20 24 29 31 32 32 30 29 29
23 22 22 21 22 22 21 19 20 21 21 24 24 22 22 23 23 23 25 21 20 20 21 26 28 31 33 34 33 33 32 28 24 23 27 30 31 31 31 30 27 26 25
19 19 20 19 19 18 18 18 19 19 19 20 22 21 19 16 17 15 12 12 15 18 22 24 27 30 21 22 22 24 29 30 30 27 28 29 28 29 29 25 23 22 22
16 18 17 18 18 15 15 16 19 19 20 21 19 18 16 13 12 14 15 16 18 22 23 25 26 28 26 26 26 27 28 30 28 27 26 26 26 26 24 22 20 20 20
17 16 15 13 15 16 15 17 21 22 23 22 21 19 17 16 15 16 18 20 22 23 23 23 26 26 25 26 25 25 26 25 25 24 24 24 23 22 20 18 17 19 19
13 14 18 16 18 19 19 19 19 13 12 21 17 16 17 16 17 20 20 20 20 21 22 25 22 22 24 26 25 22 22 21 21 21 21 20 18 17 17 16 16 17 18
17 17 19 20 23 20 19 20 19 17 14 20 18 16 17 19 22 22 21 21 21 20 23 21 22 22 23 22 19 19 18 19 18 18 17 16 16 15 15 15 15 16 17
19 20 21 22 21 20 19 18 15 11 11 16 19 22 17 19 21 18 24 24 19 21 23 21 22 23 22 20 18 18 18 17 17 16 14 14 14 15 15 15 15 14 15
14 14 16 15 13 16 14 11 10 10 12 13 19 22 26 25 19 19 22 24 24 23 21 23 21 24 22 21 21 20 17 16 15 14 12 13 13 14 15 15 15 15 15
16 11 16 16 17 18 17 15 13 14 14 21 24 23 25 24 20 21 22 21 25 24 24 21 22 21 22 20 20 18 15 15 13 12 12 12 12 13 14 15 16 16 15
13 12 14 16 17 14 12 17 18 22 21 20 25 29 25 26 24 19 19 23 24 26 24 23 21 20 22 18 17 16 14 12 11 11 11 12 13 14 14 15 16 15 14
21 22 23 23 15 16 15 17 18 14 21 22 22 21 22 22 19 21 26 22 23 24 24 23 19 18 16 17 17 15 12 11 10 10 11 12 14 14 14 14 15 13 13
14 16 14 15 17 19 19 18 17 18 17 16 14 17 22 23 19 21 22 20 20 19 19 20 18 17 18 17 15 14 13 11 10 10 11 12 13 14 13 13 13 11 10

GFSGL_700_spd_012.txt.gz
Wind_Speed
27 27 25 23 20 17 16 19 20 24 22 27 24 20 25 26 26 28 34 36 38 37 34 28 20 20 13 11 13 9 9 12 15 14 17 17 21 23 26 26 28 27 28
25 28 26 24 24 22 21 19 20 23 28 30 30 29 32 33 34 34 36 40 40 41 39 36 23 20 15 13 13 12 13 15 17 20 20 22 22 21 24 26 32 31 29
27 24 24 27 28 26 24 24 25 27 30 31 33 34 36 38 41 41 43 41 42 42 40 33 26 21 22 21 17 16 17 19 23 27 22 25 26 23 23 25 26 30 25
27 25 25 25 24 24 23 25 27 27 29 32 32 35 37 38 40 42 44 42 42 40 42 34 32 28 26 22 19 19 20 23 25 24 37 32 30 30 27 29 29 30 30
27 28 26 25 24 23 25 25 25 28 29 31 32 32 32 34 35 38 43 45 44 41 41 32 33 29 24 22 24 24 24 26 30 33 35 33 28 28 28 29 33 33 32
29 27 25 25 24 25 25 26 27 28 29 30 31 30 30 31 34 38 42 45 44 35 37 34 31 29 21 26 24 23 26 31 30 34 35 36 33 30 29 30 32 36 38
32 29 26 26 26 28 28 29 31 30 31 29 28 25 26 24 31 35 41 40 35 38 34 33 31 29 26 27 25 26 30 36 36 36 28 26 27 28 31 31 34 36 32
34 33 28 28 31 30 29 29 30 29 27 26 24 25 24 25 31 32 34 35 36 34 31 33 30 28 29 29 25 28 32 29 29 29 32 31 30 29 30 33 33 31 29
33 34 30 34 37 32 28 29 27 28 24 20 22 25 28 29 31 30 29 30 31 29 31 31 30 28 28 26 25 30 31 28 27 30 33 33 32 29 31 34 31 32 31
34 33 39 40 35 33 29 27 26 23 20 18 21 25 30 27 27 24 25 27 27 26 26 27 29 26 24 24 29 28 27 26 28 30 31 33 30 29 32 29 29 28 30
37 37 37 37 36 31 30 28 23 19 19 22 26 28 28 27 22 22 24 25 24 24 23 25 21 19 24 29 27 23 26 29 30 32 33 30 29 29 22 29 28 30 33
39 36 38 36 34 33 27 23 20 20 23 27 27 26 25 23 21 23 23 24 23 22 24 24 27 24 27 23 23 26 28 32 34 33 30 28 24 22 21 24 28 32 33
38 39 37 34 31 25 24 18 20 25 27 25 25 24 22 22 22 23 22 23 22 24 22 22 25 25 26 24 26 29 32 35 33 27 24 22 18 20 24 29 30 29 30
39 34 30 28 26 22 19 20 19 21 22 23 24 22 22 22 22 21 22 22 20 26 24 26 23 25 27 27 28 31 29 26 21 19 18 20 23 26 29 29 29 27 27
32 30 26 21 17 16 17 18 20 21 20 22 20 19 20 17 17 20 21 20 16 15 19 18 18 23 24 26 26 28 30 28 28 26 25 25 25 27 27 29 27 24 24
23 20 15 13 13 15 17 18 19 18 18 18 16 15 16 17 19 17 16 13 13 13 15 18 20 22 20 20 24 28 28 28 30 29 27 26 26 26 27 24 23 21 20
15 14 14 13 14 15 16 16 15 16 15 16 16 16 15 18 16 14 15 15 14 16 17 19 21 22 24 25 26 24 25 27 29 26 24 24 25 24 24 21 19 18 17
10 10 11 15 15 15 15 12 12 15 16 16 16 15 18 19 17 17 16 15 17 18 20 20 18 20 23 24 24 23 24 25 23 23 23 24 23 21 19 18 17 17 17
11 10 17 12 18 15 12 11 16 15 17 15 18 15 18 18 17 16 17 19 19 18 16 14 24 22 21 22 23 22 20 19 20 21 22 21 19 17 17 17 15 15 16
12 13 14 15 17 20 21 12 14 13 19 18 17 19 15 18 18 18 18 19 19 16 18 20 21 21 19 19 21 21 21 21 20 20 19 17 15 14 15 15 15 15 15
15 14 15 20 20 18 18 16 13 14 20 20 18 13 18 15 16 18 20 17 13 13 15 18 18 20 21 21 19 18 19 20 19 18 16 15 14 14 15 15 16 14 15
9 10 17 21 17 20 15 13 15 18 18 19 20 21 21 20 23 21 22 22 20 20 18 20 16 18 21 23 20 21 20 18 17 15 14 13 13 14 15 16 17 16 16
15 14 6 18 25 22 22 16 21 21 22 17 24 21 23 24 25 20 22 26 25 21 18 22 20 18 20 21 17 17 16 16 15 13 12 12 13 14 15 16 17 17 16
19 21 21 21 24 21 23 21 24 22 19 25 22 25 23 26 27 30 25 28 22 18 20 21 23 19 19 18 18 16 13 13 12 11 11 12 13 14 16 16 16 14 16
12 18 18 27 18 18 13 17 24 10 21 21 24 22 25 31 23 22 23 22 18 21 23 24 23 20 15 14 18 15 14 13 12 11 11 12 13 14 15 14 14 13 13
18 18 24 31 21 12 24 10 15 18 14 13 21 19 19 19 21 23 19 16 18 20 19 19 19 15 14 14 14 15 14 13 12 11 11 12 12 13 13 14 14 13 12

GFSGL_700_spd_015.txt.gz
Wind_Speed
20 19 23 22 22 21 19 18 15 13 16 13 15 16 19 20 22 23 25 29 31 32 29 26 26 27 20 18 18 15 13 12 10 11 12 14 15 15 18 20 19 19 20
23 22 23 26 25 23 20 16 16 16 16 18 18 20 21 24 27 28 29 31 33 32 31 28 27 28 20 20 18 14 17 14 13 13 16 18 18 26 25 24 22 22 22
25 23 25 28 28 25 20 18 19 17 20 20 21 22 22 26 29 30 33 34 34 34 32 28 29 27 19 21 21 22 13 13 17 19 21 20 24 26 28 27 24 22 25
25 25 25 26 25 25 23 22 22 20 22 24 25 27 27 28 31 31 33 34 38 38 35 32 30 26 20 20 23 20 19 21 22 19 25 22 27 25 27 28 29 28 27
25 25 25 22 24 24 24 25 25 26 24 25 27 29 29 30 32 32 31 33 34 38 37 35 33 29 23 21 24 22 22 25 19 23 28 27 25 23 27 33 31 31 30
28 26 25 25 26 26 26 25 24 26 27 27 28 30 30 32 29 26 29 32 35 36 38 35 32 31 28 20 24 24 24 22 23 25 29 27 25 25 25 28 31 32 31
28 28 27 28 28 27 27 27 25 24 26 29 30 31 30 29 25 25 27 32 37 37 34 32 31 26 27 22 26 24 27 21 24 28 29 27 27 26 27 28 31 32 31
31 30 30 31 31 29 29 29 28 28 28 29 29 27 27 23 21 24 29 35 36 36 33 31 27 23 24 22 27 32 27 20 24 28 28 27 27 27 28 31 32 32 31
31 33 31 31 32 32 32 31 28 29 28 27 26 25 20 21 22 26 33 36 37 31 27 27 25 24 20 23 28 26 19 23 26 27 26 26 27 29 29 32 31 34 29
30 36 33 31 32 32 33 31 29 26 24 29 24 20 21 23 27 31 31 29 27 23 23 25 22 26 25 27 24 19 23 24 23 26 27 26 29 30 29 30 31 28 23
31 37 36 36 34 36 37 32 27 29 29 24 21 20 22 27 30 29 27 26 22 22 20 19 20 20 24 18 18 19 22 22 27 30 30 29 29 29 29 31 24 23 27
34 36 37 39 40 41 36 29 30 30 23 20 19 23 26 27 28 26 25 22 21 22 22 16 18 18 19 18 18 21 22 26 30 31 32 28 25 24 25 21 22 26 31
38 40 41 42 40 38 37 33 31 23 19 20 25 25 28 27 24 23 22 22 20 20 21 17 16 19 18 21 22 23 26 28 28 25 24 20 19 20 20 22 25 28 29
40 42 46 41 38 36 35 29 22 20 20 22 24 26 25 23 21 20 22 20 20 19 17 17 19 20 23 24 23 26 27 25 24 25 19 14 17 20 22 25 26 27 28
37 40 40 36 33 29 27 22 20 19 20 22 23 23 19 18 19 18 17 19 21 17 14 14 17 19 20 23 25 25 20 25 27 26 24 24 22 22 22 24 25 25 24
30 29 28 27 26 23 21 18 18 19 20 21 19 18 17 16 16 16 17 17 14 12 12 14 16 19 23 22 21 21 24 26 27 28 24 22 23 24 25 23 23 22 20
24 24 22 20 18 17 16 17 19 18 17 17 16 17 16 15 15 15 14 13 13 14 15 16 18 21 22 20 20 24 26 26 27 28 24 22 22 24 24 22 19 18 17
21 18 17 16 13 11 11 15 17 16 16 15 16 16 15 14 14 13 14 15 14 15 18 19 18 20 17 17 18 20 22 24 24 22 22 22 23 24 22 19 18 17 17
16 16 14 15 16 15 15 15 15 23 19 19 17 11 12 13 16 15 14 15 15 18 20 22 22 16 16 18 21 20 20 20 19 20 21 21 22 21 18 17 17 17 17
13 15 19 20 18 14 14 11 15 16 14 12 12 15 17 15 13 13 14 16 18 20 21 20 21 20 18 19 21 20 20 19 19 20 20 18 17 16 16 15 16 17 18
17 19 18 18 19 19 14 12 17 16 11 13 13 16 15 15 13 12 15 16 16 16 17 17 20 18 18 17 16 17 18 18 20 19 15 14 14 13 14 15 16 17 19
18 17 17 17 17 21 13 18 22 16 15 14 16 12 17 17 17 16 18 20 16 15 18 20 22 19 18 18 15 16 17 18 17 13 11 12 12 12 13 15 16 17 18
15 11 16 23 22 19 24 19 19 17 22 21 23 24 20 14 20 21 23 23 22 20 23 24 20 18 17 17 16 15 16 16 14 12 13 12 11 12 13 15 16 16 17
15 14 22 21 20 25 25 23 20 23 22 26 26 26 20 19 22 22 20 27 25 23 28 26 21 18 19 16 14 12 14 16 14 13 12 12 12 13 13 14 14 14 15
23 20 17 17 23 22 21 19 20 26 24 22 27 21 18 16 18 26 29 23 20 22 19 19 19 20 19 15 16 16 15 15 15 14 13 13 12 12 11 13 12 13 13
20 19 23 25 23 24 31 20 27 22 15 16 23 20 21 21 22 21 20 20 17 15 16 17 17 16 14 11 15 17 16 14 14 14 14 13 12 11 10 12 12 11 12

GFSGL_700_spd_018.txt.gz
Wind_Speed
23 19 19 21 24 24 21 19 21 22 20 16 14 16 17 18 17 17 18 21 23 25 27 26 23 22 20 17 15 15 15 11 12 14 12 10 13 14 13 18 20 24 25
24 23 20 22 25 27 23 18 21 21 19 15 14 13 15 18 20 20 21 24 26 27 29 30 24 22 18 19 17 17 18 16 19 18 15 14 17 17 19 25 22 21 22
27 28 26 25 27 28 25 23 20 19 17 15 15 14 15 18 21 22 23 26 29 30 31 32 29 23 19 20 18 18 20 19 16 15 19 16 18 18 22 24 24 25 23
27 31 29 28 26 29 27 25 23 22 20 19 18 18 20 22 22 24 25 28 30 32 33 32 33 27 23 21 20 19 20 21 20 20 24 21 24 24 27 28 27 27 28
25 29 27 28 26 29 30 28 26 26 25 24 25 25 24 24 23 24 25 28 27 28 30 31 32 29 25 22 23 21 23 24 24 23 26 25 24 27 29 28 29 28 28
20 28 27 29 31 31 31 29 29 28 29 28 28 29 28 27 25 25 26 26 25 29 33 32 29 27 25 24 23 23 23 28 30 30 29 26 27 28 27 28 30 32 32
22 25 30 30 33 33 33 32 32 30 29 28 29 29 28 28 26 27 25 24 26 30 32 31 27 25 26 26 22 27 24 31 31 33 27 25 28 27 29 30 31 33 33
25 28 29 31 33 35 36 35 34 32 31 31 31 28 25 26 27 24 21 26 29 32 33 32 30 28 27 27 24 31 25 30 32 31 23 27 28 27 31 34 35 36 35
25 27 34 33 35 36 38 38 36 35 34 31 29 25 22 23 25 21 23 28 33 32 32 30 26 23 24 25 26 27 29 25 23 21 24 25 27 30 33 36 36 40 37
32 27 30 36 32 37 38 38 37 37 33 30 24 25 23 24 24 23 26 33 34 30 28 24 22 21 23 24 25 26 21 18 22 24 24 25 31 35 38 38 37 35 34
30 29 29 33 34 32 38 39 39 36 29 27 25 24 28 26 27 27 30 32 28 25 22 21 20 19 18 17 20 22 22 22 24 23 26 31 35 36 35 33 32 31 32
38 31 31 31 34 37 36 39 35 32 31 28 25 31 30 26 26 29 29 24 23 20 19 19 17 18 17 18 18 18 20 21 22 26 29 32 31 28 26 25 24 26 28
40 37 34 31 36 42 41 37 34 31 29 26 29 25 22 26 29 26 22 20 19 20 20 17 18 17 18 17 17 18 23 23 25 27 28 26 22 21 24 26 27 28 30
39 34 34 37 39 45 42 39 35 32 27 30 26 23 25 28 27 23 21 20 20 19 18 19 17 16 16 18 21 22 22 25 26 23 22 20 21 20 21 24 25 27 28
39 31 31 32 37 43 43 39 35 29 23 24 23 24 27 26 23 20 19 17 17 18 17 14 15 15 15 18 20 21 23 22 21 23 24 25 23 23 23 23 25 27 28
42 43 40 36 38 39 32 28 27 27 22 24 25 27 26 22 18 17 16 17 17 14 13 13 14 16 17 19 20 21 19 19 21 22 23 23 24 23 22 23 25 26 25
35 35 32 28 31 29 27 19 27 23 23 23 23 23 22 21 19 18 17 16 15 12 12 14 16 18 18 18 17 18 18 18 20 22 24 23 21 21 21 22 23 23 22
34 32 23 27 25 18 20 29 25 18 17 18 18 19 19 18 20 19 19 16 14 13 15 16 18 18 17 15 16 17 19 19 21 23 25 24 22 21 21 22 22 21 22
18 21 25 26 27 27 25 22 21 20 19 21 20 18 18 20 18 16 15 15 14 15 17 19 17 14 14 15 16 18 19 20 21 23 24 23 22 21 20 19 19 20 22
25 24 24 25 23 20 20 19 18 17 17 15 17 17 18 17 14 10 11 14 16 18 17 18 16 14 15 17 19 18 18 18 18 20 20 18 18 17 16 16 18 20 21
21 20 20 19 16 12 14 11 15 21 26 30 17 16 17 17 12 9 10 14 15 15 16 15 15 16 16 18 20 19 20 20 18 16 14 15 15 13 13 15 17 19 20
17 18 19 18 19 19 25 33 24 16 16 15 15 15 15 8 11 12 13 15 16 16 17 17 18 19 17 18 19 18 19 18 16 15 14 14 13 12 13 15 16 18 20
14 20 20 17 16 15 16 17 21 13 13 16 18 20 16 14 14 15 14 17 22 19 17 20 19 21 21 17 18 18 19 17 15 13 14 14 13 13 12 14 15 16 19
20 17 12 10 14 16 16 19 18 18 22 16 16 19 17 19 22 18 19 22 22 20 24 22 22 26 22 21 19 18 17 17 15 14 14 14 14 12 11 14 15 16 17
22 21 17 16 19 21 21 21 17 19 20 21 22 19 19 24 26 16 17 18 23 24 19 21 25 18 18 20 19 22 16 15 15 15 14 14 14 12 12 13 14 14 15
19 17 17 18 18 19 18 18 19 21 17 19 22 25 24 23 17 19 21 21 19 19 20 21 17 16 19 19 19 19 18 16 15 14 14 14 13 12 11 12 13 13 14

GFSGL_700_spd_021.txt.gz
Wind_Speed
24 22 22 26 28 27 26 22 22 25 28 28 24 20 17 15 16 16 16 16 17 19 21 23 26 24 20 18 15 16 12 14 13 12 10 12 15 16 17 18 20 22 25
24 24 25 24 27 29 28 23 25 28 30 27 25 23 20 18 18 18 18 20 20 21 22 24 25 28 24 21 18 18 14 16 16 17 16 13 16 20 19 20 21 25 28
28 28 29 28 26 29 29 25 26 30 31 29 26 24 22 21 20 20 20 21 22 23 25 26 24 27 28 23 21 19 20 19 19 18 18 14 18 21 23 25 27 27 30
31 32 34 32 28 26 30 29 26 30 31 29 27 23 22 21 21 21 21 21 23 24 25 25 25 25 25 24 24 23 22 23 22 22 21 22 23 24 27 30 33 31 29
32 36 37 34 31 29 33 33 31 30 29 29 28 26 24 23 21 21 21 22 24 24 24 25 26 27 24 22 25 24 24 24 23 26 27 30 30 30 32 32 31 32 28
35 35 35 36 35 34 32 36 36 32 31 30 30 28 26 25 23 22 23 25 27 24 23 28 30 28 24 20 24 26 28 26 27 27 33 33 35 36 33 33 30 31 33
34 37 34 34 36 37 37 35 39 38 35 35 33 31 29 27 25 22 24 26 29 26 26 30 31 29 27 24 25 28 27 28 33 32 34 33 35 34 27 30 30 34 35
38 36 33 32 35 39 41 38 39 41 39 37 35 32 30 27 24 24 24 24 25 28 29 33 32 31 30 26 24 24 25 27 29 27 29 30 25 23 31 30 31 36 38
42 36 35 31 33 37 41 42 40 42 41 39 36 34 31 26 25 24 23 25 28 28 30 34 32 31 28 24 22 23 26 24 27 25 24 23 26 27 29 32 34 40 42
39 38 35 34 35 38 38 43 42 43 42 40 38 36 31 30 27 22 27 29 27 32 36 32 30 26 23 20 21 23 22 24 24 25 25 27 27 27 33 37 40 40 39
34 35 35 37 35 37 39 39 46 44 44 43 40 36 34 31 24 18 30 31 31 34 33 30 25 22 21 20 21 22 22 25 24 23 25 27 30 31 35 35 34 34 34
38 40 40 36 37 38 39 40 38 46 46 46 42 35 34 29 18 23 37 32 34 35 32 26 22 20 18 19 21 20 21 20 20 21 25 26 29 32 31 30 29 30 32
45 47 45 39 45 40 39 42 43 40 45 46 44 40 35 28 23 25 33 33 34 31 25 21 20 18 19 21 22 20 17 19 21 20 24 26 26 25 25 26 27 29 30
46 49 52 50 47 51 43 45 47 48 43 43 43 40 31 26 21 24 34 33 30 23 19 17 18 19 19 20 20 18 19 19 19 22 23 24 22 22 25 27 25 25 26
49 54 57 53 56 53 51 50 50 48 45 44 40 37 27 23 23 34 33 27 21 19 18 17 18 17 17 17 15 14 16 19 21 22 22 21 21 23 25 27 27 27 28
54 60 59 60 58 54 58 50 42 43 44 40 40 25 18 22 29 30 24 20 17 16 15 15 14 14 14 13 13 16 19 21 21 21 22 21 22 23 25 26 26 27 27
60 65 62 59 58 57 46 47 49 45 33 16 28 19 21 21 27 23 20 18 17 14 13 13 12 13 12 13 16 18 19 20 20 20 19 20 21 22 24 25 25 24 24
59 59 54 57 56 49 43 38 38 48 52 30 27 23 27 25 23 19 19 19 15 13 13 12 12 11 13 15 16 17 18 17 18 18 19 20 20 21 23 23 22 22 23
52 36 27 48 36 17 17 24 29 28 28 28 23 25 24 20 19 20 20 17 14 13 12 10 11 13 16 15 15 15 16 17 18 18 18 20 20 21 21 19 20 22 22
56 23 20 40 26 29 29 22 27 26 27 26 23 22 19 16 17 19 17 14 14 12 10 11 12 14 15 14 15 16 17 18 18 17 18 20 21 21 20 18 20 19 21
37 39 18 16 20 22 22 20 20 15 15 16 19 16 17 19 20 17 14 12 10 10 12 14 14 14 14 14 16 19 18 18 18 17 18 19 20 19 18 18 19 20 20
23 22 21 20 19 16 14 14 13 14 16 19 17 17 13 13 13 10 11 10 11 12 13 15 17 16 16 16 18 18 17 20 20 18 17 18 19 18 17 17 18 18 20
11 12 12 10 9 10 12 14 15 16 14 11 12 11 10 13 13 8 8 12 14 17 18 18 17 16 14 17 18 18 18 20 20 17 17 18 18 17 16 16 17 17 19
10 11 10 12 15 10 11 12 12 12 10 12 15 17 15 15 14 11 13 15 19 22 22 20 18 19 13 21 20 18 17 18 20 17 17 18 17 16 15 16 16 16 17
4 9 14 13 11 12 13 13 12 12 12 14 17 16 12 15 17 17 17 20 22 21 20 21 21 19 17 21 18 18 20 17 18 17 18 18 16 14 14 15 15 15 16
30 16 16 18 17 11 14 14 13 12 13 14 14 11 12 16 17 19 22 22 22 22 21 17 15 15 16 18 19 19 20 20 17 16 16 18 17 15 14 14 14 15 15

GFSGL_700_spd_024.txt.gz
Wind_Speed
22 22 22 23 21 25 27 25 22 23 29 33 33 31 28 23 21 19 17 15 13 14 15 15 16 18 20 17 15 13 13 17 11 14 15 13 14 15 16 17 19 20 22
23 22 24 22 24 25 27 28 25 27 30 35 35 32 28 24 21 20 18 16 16 16 17 18 18 18 18 18 17 16 16 16 17 18 17 17 18 19 19 21 22 22 23
29 25 25 26 28 27 25 29 28 30 32 36 37 34 30 25 22 21 21 19 18 17 18 20 21 21 20 18 19 19 19 20 21 16 18 21 22 24 23 25 27 29 29
33 31 31 30 31 28 24 28 30 30 33 36 37 35 31 27 25 25 22 20 20 20 20 21 22 24 22 23 23 21 22 23 23 21 22 24 25 27 28 28 31 33 33
29 34 35 34 32 30 29 28 32 32 32 37 39 37 33 30 26 24 22 23 23 23 22 22 24 23 24 24 24 26 26 26 28 28 24 26 29 30 32 34 34 35 31
30 31 34 34 34 34 34 30 35 36 33 37 40 38 35 32 28 25 25 25 24 25 23 21 26 28 24 24 25 27 28 29 29 29 26 27 23 30 32 35 38 29 26
34 32 32 34 34 37 38 35 36 38 39 36 38 39 36 34 31 27 27 27 28 27 25 25 26 28 30 27 27 27 30 31 31 29 29 27 26 29 28 30 30 28 31
40 35 37 35 36 39 42 41 39 40 42 41 39 39 38 36 33 30 29 30 30 28 26 26 28 33 30 28 30 32 30 29 23 28 29 24 25 23 24 26 30 30 31
40 42 41 38 36 37 43 42 41 43 43 44 44 42 40 37 35 33 31 33 28 22 25 30 30 31 29 30 32 31 28 26 25 27 26 25 24 23 27 29 31 33 35
36 35 40 40 38 40 39 41 43 44 46 45 45 45 43 42 39 36 37 34 31 27 29 29 32 32 31 32 31 28 28 24 27 28 26 24 24 25 28 30 30 33 34
28 33 36 45 42 37 35 40 42 42 46 49 46 46 47 47 43 42 39 35 29 27 31 33 36 38 35 32 29 28 26 24 28 27 24 23 23 26 28 29 31 31 30
47 39 41 40 45 43 42 39 42 41 42 46 51 50 50 49 47 45 39 34 30 29 30 31 40 40 36 31 29 27 24 22 22 20 21 21 25 26 28 31 28 26 27
31 32 33 38 36 41 42 39 37 40 47 46 45 53 53 53 53 48 42 36 35 33 31 31 37 37 33 30 28 25 21 19 19 18 21 22 24 26 26 28 26 24 26
34 36 37 36 39 52 51 48 44 40 44 54 51 50 53 56 52 47 42 33 32 32 29 29 37 36 32 27 25 20 16 18 18 19 21 22 23 24 25 24 23 25 26
35 37 40 43 44 47 47 53 44 48 45 49 45 49 50 48 52 48 38 24 28 27 27 30 37 31 27 23 19 15 16 17 17 20 20 20 21 22 21 22 22 24 26
43 45 46 49 51 51 50 47 47 50 55 57 51 50 51 32 22 40 36 20 27 26 26 34 30 27 22 19 16 15 17 18 19 20 19 19 20 19 20 21 22 23 26
51 52 54 56 58 56 53 53 54 57 58 57 57 58 53 67 34 25 17 24 29 26 26 28 24 21 19 16 16 17 19 19 19 19 19 20 19 18 19 20 21 23 24
48 55 58 64 68 69 66 60 46 45 41 49 54 57 58 39 47 43 27 30 29 27 27 22 21 20 16 17 17 17 19 20 19 19 19 19 17 18 18 19 20 20 20
33 40 44 52 65 72 64 53 33 36 40 30 30 38 37 28 22 27 32 32 27 25 21 19 21 20 18 17 16 17 19 20 19 18 19 17 15 16 16 16 17 17 18
19 8 21 26 35 57 38 35 39 42 38 47 31 31 29 25 24 31 33 28 26 22 22 22 21 18 17 16 15 18 20 20 18 18 16 14 13 14 14 15 15 16 18
6 16 21 23 24 13 14 16 22 35 38 16 16 27 20 14 17 21 22 25 23 22 21 19 16 16 15 15 17 19 21 19 16 15 14 13 12 13 13 15 15 15 17
16 2 17 1 15 7 10 12 15 18 26 29 27 25 23 20 22 23 22 22 21 20 17 14 14 13 14 17 19 22 22 18 13 14 15 13 12 14 15 15 15 15 17
15 18 16 13 12 13 14 14 14 18 22 24 23 23 20 21 17 19 18 18 17 16 14 13 14 15 15 17 21 23 22 16 13 15 16 14 13 15 16 16 15 15 15
3 3 7 8 9 10 13 14 16 13 11 16 21 20 13 14 20 17 15 15 14 13 13 12 13 12 14 19 20 18 16 14 13 16 17 14 14 15 16 16 16 16 15
6 3 3 5 6 12 13 15 11 11 15 18 22 24 23 24 26 20 16 13 13 12 15 14 13 15 17 16 19 17 17 15 13 15 16 14 14 14 15 16 16 16 17
13 11 12 13 6 6 6 7 12 13 11 11 16 15 18 21 19 23 17 16 17 16 17 16 13 15 16 16 18 17 15 16 14 14 15 15 15 14 15 16 16 17 17

GFSGL_700_spd_027.txt.gz
Wind_Speed
28 24 20 21 21 22 24 24 24 21 22 26 35 36 34 31 27 24 21 18 14 13 12 13 14 14 14 13 11 10 11 12 14 15 17 18 18 18 20 20 20 20 24
25 26 23 22 22 24 24 23 25 24 24 27 33 40 37 33 31 27 23 20 17 17 17 17 18 17 16 15 15 14 14 14 14 16 15 19 20 23 23 23 24 24 22
29 27 28 28 27 27 26 24 25 27 28 30 34 40 39 36 34 29 25 23 21 20 21 20 21 21 19 17 18 18 19 20 17 18 17 19 22 24 26 27 28 29 29
33 32 31 31 30 28 25 25 25 27 29 32 34 39 40 38 36 32 28 25 23 23 23 22 23 24 25 23 19 20 22 24 23 21 22 23 23 25 28 29 30 31 33
39 36 35 32 31 32 30 28 27 28 29 33 36 39 43 42 39 35 31 27 26 26 25 26 27 27 28 24 23 22 25 25 25 25 26 24 23 24 28 28 27 31 32
31 29 28 35 36 35 34 32 30 30 29 34 37 39 45 45 41 38 35 31 29 29 29 28 30 30 32 27 27 25 25 26 25 26 28 27 25 22 29 26 27 28 27
29 25 27 30 32 33 33 36 34 33 32 35 38 38 43 45 43 41 37 35 33 32 32 32 32 32 33 32 29 25 27 26 24 25 27 26 23 25 26 28 29 29 27
36 32 27 25 28 30 33 34 34 35 36 37 39 39 39 46 46 44 41 39 38 37 36 33 33 34 31 33 31 26 28 26 25 25 25 27 26 28 26 26 24 26 27
34 34 35 33 33 34 33 34 36 39 37 40 41 43 41 43 48 47 45 44 43 41 40 35 32 33 27 34 29 25 27 26 25 24 26 29 26 27 25 25 26 27 29
30 28 30 30 33 37 38 36 35 38 41 39 42 45 45 44 45 46 47 47 48 44 43 36 34 33 29 30 26 26 27 25 24 24 26 28 26 27 25 24 27 29 30
39 38 36 35 34 35 40 41 40 37 39 40 40 43 48 50 50 49 50 51 50 46 45 37 36 36 31 28 26 25 24 25 24 25 26 27 25 26 24 25 28 28 28
40 39 39 38 35 37 38 32 51 48 41 41 40 40 43 50 50 52 53 51 51 49 43 39 40 36 32 28 27 25 24 24 24 24 26 26 25 23 24 27 27 27 28
37 42 42 44 40 41 40 41 37 39 43 35 42 45 45 44 47 51 52 50 53 51 45 44 43 34 29 31 30 26 23 24 23 26 26 23 22 23 25 26 27 27 26
30 31 32 34 40 41 44 41 37 34 42 44 51 52 43 39 44 48 51 57 55 55 51 45 41 31 36 37 29 24 23 24 24 27 24 23 22 22 25 25 27 26 24
28 30 32 34 37 41 45 44 37 44 45 45 52 50 45 49 52 49 50 57 54 53 48 46 36 33 35 31 25 24 25 24 26 26 24 22 21 22 24 24 24 24 23
33 35 38 40 43 45 47 48 48 45 44 48 49 53 63 53 56 57 54 52 58 45 36 42 32 30 34 28 25 25 25 27 27 25 22 21 21 22 23 22 23 22 22
37 39 42 45 50 55 56 56 56 59 55 51 49 51 48 53 54 55 50 50 53 38 36 44 43 31 31 26 24 25 28 29 28 23 21 21 20 22 21 21 23 20 20
40 43 46 50 55 60 63 65 66 65 66 62 56 51 42 42 44 44 51 53 42 25 28 36 38 34 28 24 25 28 29 30 24 22 21 20 20 22 20 21 22 19 17
43 41 38 40 45 53 59 63 62 62 65 63 62 48 46 41 48 36 29 29 24 28 37 35 31 29 25 25 29 28 29 26 22 21 20 20 21 21 19 20 21 18 15
31 29 29 28 30 27 26 34 40 46 55 60 62 46 45 48 44 27 25 15 19 22 28 27 24 22 23 28 28 27 24 23 21 20 20 21 23 20 19 20 19 17 14
17 18 18 20 20 14 20 32 26 22 19 20 24 34 33 27 28 30 30 26 32 39 32 29 26 24 28 29 26 22 20 22 21 20 21 23 22 20 19 19 18 17 15
9 10 8 9 9 12 6 7 5 2 5 14 18 18 25 16 19 23 22 25 28 30 29 27 25 27 28 23 21 19 21 24 23 21 22 24 22 20 18 18 18 16 15
5 6 10 8 6 9 10 18 15 13 12 12 14 15 23 24 23 24 27 26 27 30 29 28 27 24 22 18 17 20 24 25 24 22 23 23 23 19 17 17 17 15 14
2 2 3 5 5 7 6 5 10 10 11 12 16 18 20 23 24 24 22 23 26 24 22 21 19 17 16 17 18 21 23 22 20 21 24 25 22 17 16 16 17 16 16
9 4 2 3 1 5 8 9 13 14 15 15 18 22 24 23 21 22 23 24 22 20 17 17 17 16 15 15 16 16 15 12 14 18 22 21 18 17 17 16 16 16 17
12 12 12 11 11 11 13 15 17 20 21 20 22 28 23 21 25 27 26 24 23 20 16 16 16 16 15 14 12 13 13 14 15 16 18 18 17 17 16 16 17 17 16

GFSGL_700_spd_030.txt.gz
Wind_Speed
26 23 30 33 31 30 30 27 26 24 22 23 25 32 34 33 33 30 27 24 20 18 15 13 14 15 16 14 13 12 12 12 12 14 16 18 17 18 20 21 21 21 23
29 28 23 22 29 34 34 30 28 28 25 24 26 32 37 36 34 32 30 28 23 20 18 17 17 19 18 18 16 15 16 15 16 18 21 20 19 18 20 22 22 24 23
30 30 31 29 27 25 24 24 24 26 27 28 28 31 37 40 39 35 32 31 27 24 22 21 21 23 22 22 18 17 18 18 18 21 22 23 22 21 22 24 23 26 26
34 34 33 30 29 27 25 26 26 26 26 28 31 31 33 41 42 39 36 34 31 28 26 24 24 25 25 25 24 21 21 21 20 22 23 25 25 23 21 23 26 27 27
41 39 38 33 33 33 33 31 31 31 30 26 29 33 34 37 42 42 39 37 35 32 30 28 27 27 26 28 29 28 27 24 25 23 23 25 26 26 25 26 24 28 27
43 37 38 37 37 36 36 36 36 35 32 30 27 30 35 37 37 41 42 40 37 36 34 32 31 31 30 31 31 33 33 28 25 25 24 25 25 24 26 25 24 27 27
45 41 40 42 41 40 39 38 39 37 35 32 32 29 31 34 36 40 42 43 41 40 38 37 36 36 32 33 34 35 37 30 25 26 24 24 24 23 25 25 28 27 25
40 40 38 38 36 33 35 37 39 42 39 36 34 35 33 32 35 37 45 46 46 45 44 42 40 39 37 36 35 37 37 32 24 27 23 22 22 24 25 27 25 24 24
40 40 38 36 34 33 33 35 35 41 43 42 42 38 38 36 36 37 42 48 50 50 47 47 46 44 41 38 39 37 37 31 25 27 25 25 22 23 24 25 22 23 24
38 41 40 40 39 35 33 31 30 36 43 46 47 43 39 40 42 43 42 48 53 54 53 51 49 48 45 41 42 40 39 28 26 26 26 25 23 24 25 23 22 24 25
31 41 44 40 38 36 33 33 32 30 32 36 46 49 47 44 41 45 46 46 52 56 56 57 53 51 49 43 44 43 36 30 28 27 23 24 23 25 25 24 22 23 26
34 33 38 39 37 37 37 38 38 40 39 36 39 43 50 48 46 41 46 51 50 55 57 57 58 51 50 49 47 43 34 29 31 28 26 24 24 24 24 24 23 26 27
31 36 39 42 41 41 40 40 43 44 42 40 41 45 52 52 48 45 42 48 55 58 55 60 59 51 50 53 49 43 32 26 31 29 28 25 24 23 25 23 24 28 26
28 30 34 38 40 42 44 44 44 45 43 42 38 36 43 50 53 49 47 54 54 55 59 61 63 51 49 48 45 36 30 28 42 29 30 26 25 24 23 26 26 28 23
32 32 30 30 31 33 34 36 39 37 39 37 36 36 41 48 57 53 53 58 55 58 61 63 54 54 52 54 44 40 34 34 44 30 30 26 25 23 25 26 27 27 21
28 29 30 31 33 35 37 39 41 41 43 43 42 40 41 42 52 49 48 55 57 61 63 58 55 53 46 44 51 51 38 31 32 31 27 26 25 24 27 28 27 24 22
33 33 34 35 37 39 42 45 49 50 52 53 52 48 49 51 51 51 55 58 50 52 55 54 56 49 48 64 54 45 36 32 30 31 26 26 25 27 29 29 27 21 21
31 32 34 35 39 42 46 49 53 56 61 62 65 65 61 56 52 55 56 58 61 51 54 55 45 50 49 45 42 45 33 30 31 27 25 26 27 29 28 27 24 21 22
30 33 37 40 43 47 49 49 49 51 55 63 64 64 59 53 51 56 62 62 60 51 52 49 48 45 41 36 34 33 29 29 30 26 26 28 29 28 28 26 22 22 22
30 34 35 38 39 39 41 41 42 41 43 42 47 45 43 52 57 62 59 52 47 47 46 36 35 31 32 32 33 31 29 33 30 27 28 28 28 27 26 25 22 24 22
26 27 31 28 28 28 28 27 21 19 19 23 26 30 37 38 41 45 50 56 42 30 33 32 29 32 29 27 31 33 34 28 26 28 29 27 28 26 26 24 22 23 24
18 18 19 19 22 21 16 13 13 12 10 13 16 21 24 26 15 19 13 13 16 29 29 28 31 28 29 31 31 28 23 25 27 29 28 26 25 25 25 24 24 24 25
7 6 8 5 3 4 4 6 4 5 5 1 1 3 4 9 16 16 17 23 28 27 28 27 27 26 28 27 22 22 25 27 28 27 27 26 27 25 25 24 24 26 24
5 5 4 5 4 3 3 4 5 5 4 5 8 10 13 10 11 16 19 21 25 27 24 26 25 25 23 22 21 21 25 27 28 26 25 28 27 27 25 25 25 27 23
10 9 7 5 4 5 5 5 7 8 6 3 7 7 7 11 14 17 17 19 20 19 17 20 22 21 21 20 19 20 24 23 24 26 25 25 25 25 24 26 26 25 22
14 12 13 14 14 14 14 14 12 12 11 10 11 16 19 19 18 17 17 18 19 22 25 23 22 22 20 20 19 21 19 19 18 20 19 20 21 21 23 24 24 24 23